Zurück zum Katalog

BRO-31

AktivAmateurfunkSSO
NORAD 69896·PAYLOAD·🇺🇸 United States

Gestartet Jul 7, 2026 von Vandenberg Space Force Base

Loading…

Nächste Überflüge (nächste 24 Stunden)

TLE

AktuellSource: Space-Track

Epoche: Sep 14, 2026, 03:33 UTC

1 69896U 26156AD  26257.14839931  .00001335  00000-0  13675-3 0  9995
2 69896  97.7450 156.4774 0006277 295.0456  65.0111 14.92142362 10266

Verfolge BRO-31 in Echtzeit mit AllMySat

Download on the App Store